Regional Weather Roundup
Issued by NWS

Home | Current Version | Previous Version | Graphics & Text | Print | Product List | Glossary On
Versions: 1 2 3 4 5 6 7 8 9 10 11 12 13 14 15 16 17 18 19 20 21 22 23 24 25 26 27 28 29 30 31 32 33 34 35 36 37 38 39 40 41 42 43 44 45 46 47 48 49 50
000
ASUS43 KOAX 302302
RWRNE

WEATHER ROUNDUP FOR NEBRASKA
NATIONAL WEATHER SERVICE OMAHA NE
600 PM CDT THU OCT 30 2014

NOTES: SATELLITE DATA IS BEING USED TO AUGMENT CLOUD COVER ABOVE
       12000 FEET.
       "FAIR" INDICATES FEW OR NO CLOUDS BELOW 12,000 FEET WITH NO
       SIGNIFICANT WEATHER AND/OR OBSTRUCTIONS TO VISIBILITY.

  * THESE STATIONS DO NOT REPORT WEATHER SUCH AS RAIN...SNOW OR FOG.

NEZ001>004-019>022-054>056-310000-
NEBRASKA PANHANDLE

CITY           SKY/WX    TMP DP  RH WIND       PRES   REMARKS
SCOTTSBLUFF    CLEAR     61  26  26 N12       30.31R
ALLIANCE       CLEAR     58  33  39 N8        30.31R
CHADRON        CLEAR     55  34  45 NE13      30.34R
KIMBALL        CLEAR     57  27  32 N9        30.32S
SIDNEY         CLEAR     59  31  34 N7        30.33R
$$

NEZ057>060-069>072-079>082-310000-
SOUTHWEST NEBRASKA

CITY           SKY/WX    TMP DP  RH WIND       PRES   REMARKS
NORTH PLATTE   CLEAR     59  31  34 N17G25    30.29R
IMPERIAL       CLEAR     62  29  28 N16       30.29R
LEXINGTON      CLEAR     60  32  35 N13G21    30.27R
MCCOOK         CLEAR     64  30  27 N18       30.27R
OGALLALA       CLEAR     62  32  33 N14       30.30R
$$

NEZ005>010-023>029-035>040-094-310000-
NORTH CENTRAL NEBRASKA

CITY           SKY/WX    TMP DP  RH WIND       PRES   REMARKS
VALENTINE      CLEAR     48  31  51 N15       30.36R
AINSWORTH      CLEAR     46  32  57 N18G25    30.35R
BROKEN BOW     CLEAR     55  34  45 N22G29    30.28R
O`NEILL        CLOUDY    46  37  71 N22G28    30.33R
ORD            CLEAR     52  33  48 N22G29    30.27R
THEDFORD       CLEAR     53  34  49 N16       30.33R
$$

NEZ041-046>049-061>064-073>077-083>087-310000-
SOUTH CENTRAL NEBRASKA

CITY           SKY/WX    TMP DP  RH WIND       PRES   REMARKS
GRAND ISLAND   CLEAR     57  35  43 N24G30    30.24R
AURORA         CLEAR     56  33  41 N18G26    30.22R
HASTINGS       CLEAR     58  32  37 N22G33    30.22R
HEBRON         CLEAR     60  32  34 N14G23    30.18R
HOLDREGE       CLEAR     59  31  33 N16G24    30.24R
KEARNEY *      CLEAR     57  30  35 NW22      30.25R
YORK           CLEAR     55  37  50 N17G30    30.21R
$$

NEZ011>018-030>034-042>045-310000-
NORTHEAST NEBRASKA

CITY           SKY/WX    TMP DP  RH WIND       PRES   REMARKS
NORFOLK        CLOUDY    46  37  71 N17G33    30.26R
ALBION         CLEAR     48  34  57 N17G29    30.28R
BLAIR          MOCLDY    56  40  56 NW17G24   30.16R
FREMONT        CLEAR     54  38  53 NW24      30.20R
TEKAMAH        CLEAR     55  40  56 NW21G30   30.18R
WAYNE          CLOUDY    47  38  71 N21G26    30.25R
$$

NEZ050>053-065>068-078-088>093-310000-
SOUTHEAST NEBRASKA

CITY           SKY/WX    TMP DP  RH WIND       PRES   REMARKS
LINCOLN        CLEAR     58  37  45 N17G30    30.18R
OMAHA EPPLEY   PTCLDY    56  39  53 NW16G31   30.15R
BEATRICE       CLEAR     58  40  50 N20G25    30.16R
FALLS CITY     CLEAR     61  40  45 N15G29    30.10R
NEBRASKA CITY  CLEAR     57  34  41 N15G21    30.13R
PLATTSMOUTH    PTCLDY    56  37  47 NW16G24   30.14R
$$

NEZ044-045-051>053-067-310000-
OMAHA AREA

CITY           SKY/WX    TMP DP  RH WIND       PRES   REMARKS
OMAHA EPPLEY   PTCLDY    56  39  53 NW16G31   30.15R
BLAIR          MOCLDY    56  40  56 NW17G24   30.16R
FREMONT        CLEAR     54  38  53 NW24      30.20R
MILLARD        CLEAR     57  40  51 NW13G28   30.16R
OFFUTT AFB     CLEAR     57  40  52 NW14G29   30.14R
PLATTSMOUTH    PTCLDY    56  37  47 NW16G24   30.14R
WAHOO          FAIR      55  36  49 N18G28    30.19R
$$



USA.gov is the U.S. government's official web portal to all federal, state and local government web resources and services.